EW6020 Weather Reports


Display with metric or nautical units.
time (UTC)temp
F
wind
direction
speed
MPH
gust
MPH
rain 1hr
in
rain 24hr
in
rain mn
in
humidity
%
barometer
mb
20260904190035 58 178 1.0 4.0 0.00 0.21 0.06 95 1011.4
20260904184529 58 178 0.0 2.0 0.00 0.21 0.06 95 1011.3
20260904183027 57 179 1.0 6.0 0.00 0.21 0.06 95 1011.3
20260904181531 57 178 2.0 4.0 0.00 0.21 0.06 95 1011.1
20260904180025 57 178 1.0 4.0 0.00 0.22 0.06 96 1011.1
20260904174522 56 179 0.0 3.0 0.00 0.22 0.06 96 1010.9
20260904173042 55 177 1.0 5.0 0.00 0.22 0.06 96 1010.8
20260904171519 56 160 1.0 4.0 0.00 0.22 0.06 96 1010.8
20260904170018 55 176 1.0 4.0 0.00 0.23 0.06 96 1010.7
20260904164517 56 152 0.0 3.0 0.00 0.23 0.06 96 1010.6
20260904163014 55 152 1.0 5.0 0.00 0.23 0.06 96 1010.5
20260904161514 55 152 0.0 5.0 0.00 0.23 0.06 96 1010.5
20260904160012 55 152 0.0 2.0 0.00 0.27 0.06 96 1010.5
20260904154510 54 151 1.0 4.0 0.00 0.27 0.06 96 1010.5
20260904153011 54 146 0.0 3.0 0.00 0.27 0.06 96 1010.4
20260904151507 53 146 1.0 6.0 0.00 0.27 0.06 96 1010.2
20260904150005 53 178 0.0 3.0 0.00 0.27 0.06 96 1010.2
20260904144502 0 0.0 0.0 0.00 0.27 0.06 1010.0
20260904143102 0 0.0 0.0 0.00 0.27 0.06 1009.9
20260904141557 0 0.0 0.0 0.00 0.27 0.06 1009.8
20260904140049 0 0.0 0.0 0.00 0.27 0.06 1009.6
20260904134544 0 0.0 0.0 0.00 0.27 0.06 1009.3
20260904133040 0 0.0 0.0 0.00 0.27 0.06 1009.2
20260904131535 0 0.0 0.0 0.00 0.27 0.06 1009.0
20260904130032 0 0.0 0.0 0.00 0.27 0.06 1008.9
20260904124526 0 0.0 0.0 0.00 0.27 0.06 1008.8
20260904123026 0 0.0 0.0 0.00 0.27 0.06 1008.8
20260904121518 0 0.0 0.0 0.00 0.27 0.06 1008.7
20260904120014 0 0.0 0.0 0.02 0.28 0.06 1008.6
20260904114509 0 0.0 0.0 0.04 0.28 0.06 1008.6
20260904113005 50 180 0.0 0.0 0.04 0.28 0.06 100 1008.5
20260904111503 52 158 0.0 0.0 0.04 0.28 0.06 96 1008.5
20260904110002 52 157 0.0 0.0 0.03 0.27 0.04 96 1008.4
20260904104502 52 153 0.0 0.0 0.01 0.25 0.02 96 1008.3
20260904103107 52 153 0.0 0.0 0.01 0.25 0.02 96 1008.4
20260904101559 52 153 0.0 0.0 0.01 0.25 0.02 96 1008.3
20260904100121 52 153 0.0 0.0 0.00 0.24 0.01 96 1008.2
20260904094556 51 153 0.0 0.0 0.01 0.24 0.01 96 1008.1
20260904093102 51 151 0.0 0.0 0.01 0.24 0.01 96 1008.0
20260904091558 51 149 0.0 0.0 0.01 0.24 0.01 96 1007.9
20260904090054 51 150 0.0 0.0 0.01 0.24 0.01 96 1007.9
20260904084553 51 150 0.0 0.0 0.00 0.23 0.00 96 1007.8
20260904083055 51 148 0.0 0.0 0.00 0.23 0.00 96 1008.0
20260904081552 51 149 0.0 0.0 0.00 0.23 0.00 96 1007.9
20260904080049 52 145 0.0 0.0 0.00 0.23 0.00 96 1008.0
20260904074600 52 153 0.0 0.0 0.00 0.23 0.00 96 1008.0
20260904073046 52 151 0.0 0.0 0.00 0.23 0.00 96 1008.1
20260904071609 52 151 0.0 0.0 0.00 0.23 0.00 96 1008.0
20260904070047 53 150 0.0 2.0 0.00 0.23 0.23 96 1007.9
20260904064601 53 147 2.0 3.0 0.00 0.23 0.23 96 1007.9
20260904063050 53 146 0.0 1.0 0.00 0.23 0.23 96 1007.9
20260904061542 53 147 0.0 0.0 0.00 0.23 0.23 96 1007.8
20260904060042 53 146 0.0 1.0 0.00 0.23 0.23 96 1007.9
20260904054540 53 146 0.0 0.0 0.00 0.23 0.23 96 1008.0
20260904053049 53 146 0.0 2.0 0.00 0.23 0.23 96 1008.1
20260904051540 53 146 2.0 4.0 0.00 0.23 0.23 96 1008.1
20260904050042 53 144 2.0 3.0 0.00 0.23 0.23 96 1008.1
20260904044538 53 157 1.0 3.0 0.00 0.23 0.23 96 1008.1
20260904043038 53 158 1.0 3.0 0.00 0.23 0.23 96 1008.1
20260904041542 53 158 3.0 5.0 0.00 0.23 0.23 96 1008.1
20260904040037 53 166 2.0 6.0 0.01 0.23 0.23 96 1008.0
20260904034535 53 159 4.0 9.0 0.02 0.23 0.23 96 1007.9
20260904033036 53 178 1.0 4.0 0.04 0.23 0.23 95 1007.8
20260904031536 53 178 1.0 4.0 0.05 0.23 0.23 95 1007.5
20260904030037 53 178 4.0 9.0 0.04 0.22 0.22 95 1007.6
20260904024533 54 179 7.0 11.0 0.03 0.21 0.21 94 1007.6
20260904023033 56 178 4.0 7.0 0.01 0.19 0.19 92 1007.5
20260904021538 56 179 1.0 3.0 0.00 0.18 0.18 92 1007.3
20260904020037 56 179 1.0 4.0 0.00 0.18 0.18 91 1007.3
20260904014532 56 179 2.0 4.0 0.00 0.18 0.18 90 1007.3
20260904013031 56 179 2.0 7.0 0.00 0.18 0.18 89 1007.2
20260904011531 56 153 6.0 9.0 0.00 0.18 0.18 88 1007.3
20260904010030 56 154 7.0 11.0 0.00 0.18 0.18 87 1007.3
20260904004529 57 178 6.0 10.0 0.00 0.18 0.18 87 1007.3
20260904003030 57 178 3.0 7.0 0.00 0.18 0.18 89 1007.3
20260904001527 56 179 7.0 11.0 0.00 0.18 0.18 94 1007.4
20260904000027 55 178 6.0 12.0 0.00 0.18 0.18 94 1007.5
20260903234526 55 178 6.0 12.0 0.00 0.18 0.18 95 1007.5
20260903233033 54 179 8.0 12.0 0.00 0.18 0.18 95 1007.5
20260903231526 54 164 6.0 11.0 0.01 0.18 0.18 95 1007.5
20260903230027 54 176 8.0 11.0 0.01 0.19 0.18 95 1007.5
20260903224533 54 179 9.0 15.0 0.01 0.19 0.18 95 1007.6
20260903223024 54 171 9.0 14.0 0.01 0.19 0.18 95 1007.8
20260903221541 54 179 9.0 15.0 0.01 0.18 0.17 95 1008.0
20260903220023 54 178 9.0 14.0 0.01 0.24 0.17 95 1008.0
20260903214522 55 178 7.0 12.0 0.01 0.24 0.17 94 1007.8
20260903213023 56 179 7.0 12.0 0.01 0.24 0.17 90 1007.8
20260903211520 56 179 6.0 16.0 0.01 0.23 0.16 90 1007.9
20260903210020 57 178 9.0 19.0 0.03 0.23 0.16 90 1007.9
20260903204519 56 179 9.0 16.0 0.04 0.23 0.16 92 1007.8
20260903203025 55 178 8.0 14.0 0.06 0.23 0.16 93 1007.9
20260903201518 55 178 13.0 22.0 0.07 0.22 0.15 91 1007.8
20260903200032 56 154 7.0 13.0 0.05 0.24 0.13 93 1007.8
20260903194533 56 178 9.0 18.0 0.04 0.23 0.12 93 1007.7
20260903193020 56 178 10.0 18.0 0.02 0.21 0.10 92 1007.8
20260903191515 57 179 18.0 26.0 0.00 0.19 0.08 88 1007.6